Location: Broxted
(51.9167°N, 0.3000°E)
Time: 22:17:28
(UTC+00:00)

Daily predictions for brighter satellites

Satellite Brightness Start Highest point End
(mag) Time Altitude Azimuth Time Altitude Azimuth Time Altitude Azimuth
Nadezhda 3 Rocket 4.1 17:18:02 10° S 17:24:19 76° E 17:30:43 10° NNE
Cosmos 1535 Rocket 4.5 17:18:23 10° N 17:24:35 65° ENE 17:30:40 10° SSE
Cosmos 1470 3.5 17:21:38 10° SSW 17:25:34 59° WNW 17:29:31 10° N
Unknown 3.3 17:22:06 10° WNW 17:25:37 81° SSW 17:29:09 10° ESE
Unknown 3.7 17:22:26 10° WSW 17:26:35 85° NNW 17:30:45 10° ENE
Unknown 3.7 17:25:50 10° W 17:29:59 83° NNW 17:34:10 10° ENE
Unknown 3.7 17:27:31 10° W 17:31:40 83° NNW 17:35:51 10° ENE
Cosmos 1833 Rocket 2.7 17:26:34 10° NNW 17:32:10 61° NE 17:37:43 10° SE
YAOGAN 6 3.2 17:29:21 10° SE 17:32:41 35° ENE 17:36:00 10° N
Cosmos 292 Rocket 4.0 17:28:15 10° S 17:32:48 47° ESE 17:37:22 10° NE
Unknown 3.5 17:29:30 10° W 17:33:20 74° N 17:37:10 10° E
Unknown 3.7 17:29:11 10° W 17:33:20 82° NNW 17:37:30 10° ENE
Unknown 3.7 17:30:52 10° W 17:35:02 82° N 17:39:11 10° E
Unknown 3.7 17:34:12 10° W 17:38:22 81° N 17:42:23 11° E
Unknown 3.7 17:35:55 10° W 17:40:04 80° N 17:44:02 11° E
Cosmos 2084 3.9 17:35:48 10° WSW 17:40:18 65° NW 17:44:44 10° NE
Cosmos 1328 3.7 17:37:22 10° N 17:41:22 77° ENE 17:45:19 10° SSE
Cosmos 1271 Rocket 4.1 17:37:46 10° NNW 17:41:36 46° W 17:45:27 10° S
Unknown 3.7 17:37:30 10° W 17:41:40 80° N 17:45:33 12° E
SKYMED 2 4.1 17:39:07 10° NNE 17:43:10 37° E 17:47:12 10° SSE
Unknown 3.7 17:39:07 10° W 17:43:16 80° N 17:47:06 12° E
SMAP 4.1 17:39:52 10° S 17:44:24 52° W 17:48:59 10° NNW
Ariane Rocket 3.9 17:40:13 10° ESE 17:44:32 29° ENE 17:48:53 10° N
Cosmos 2228 3.1 17:40:37 10° S 17:44:59 85° WNW 17:49:21 10° N
Unknown 3.7 17:40:53 10° W 17:45:02 79° N 17:48:48 13° E
Unknown 3.7 17:42:18 10° W 17:46:29 80° N 17:50:10 13° E
YAOGAN 1 2.8 17:42:47 10° SE 17:46:55 46° ENE 17:51:05 10° N
Cosmos 1992 Rocket 4.5 17:41:53 10° SW 17:47:05 65° WNW 17:52:18 10° NNE
Unknown 3.7 17:45:39 10° W 17:49:48 79° N 17:53:22 14° E
Unknown 3.7 17:47:19 10° W 17:51:29 78° N 17:54:58 14° E
Cosmos 921 Rocket 3.2 17:47:39 10° SSW 17:52:09 81° WNW 17:56:37 10° NNE
Unknown 3.7 17:49:11 10° W 17:53:20 77° N 17:56:46 15° E
Cosmos 1300 4.1 17:51:45 10° SE 17:54:26 18° E 17:57:07 10° NE
Cosmos 1726 Rocket 3.8 17:50:26 10° SSW 17:54:48 73° WNW 17:59:11 10° N
Unknown 3.7 17:50:39 10° W 17:54:49 78° N 17:58:10 15° E
Unknown 3.5 17:50:58 10° W 17:54:53 76° N 17:57:58 16° E
Cosmos 1939 Rocket 3.7 17:52:10 10° SE 17:55:42 30° ENE 17:59:18 10° N
Abrixas rocket 3.5 17:53:09 10° SW 17:55:47 26° SSE 17:57:37 15° ESE
Unknown 3.7 17:52:16 10° W 17:56:25 77° N 17:59:43 16° E
Cosmos 489 Rocket 4.4 17:50:50 10° S 17:56:58 68° ESE 18:03:09 10° NNE
CZ-2D R/B 3.9 17:55:21 10° SE 17:58:51 34° ENE 18:02:23 10° N
Unknown 3.7 17:55:40 10° W 17:59:49 77° N 18:02:58 17° E
H-2A R/B 4.4 17:56:07 10° SSW 17:59:49 40° W 18:03:34 10° NNW
Unknown 3.7 17:57:17 10° W 18:01:27 76° N 18:04:32 17° E
Cosmos 1777 Rocket 4.4 17:57:11 10° NNW 18:02:24 69° WSW 18:07:33 10° SSE
Cosmos 2082 Rocket 2.2 17:57:20 10° NNW 18:03:05 71° ENE 18:08:46 10° SE
Unknown 3.7 17:58:58 10° W 18:03:08 76° N 18:06:09 18° E
Unknown 3.6 18:00:30 10° W 18:04:34 75° N 18:07:24 19° E
BREEZE-M DEB (TANK) 4.0 18:00:32 10° W 18:04:44 62° SSW 18:15:42 10° ESE
Unknown 3.7 18:00:37 10° W 18:04:46 76° N 18:07:43 19° E
CSL-04 Debris 4.1 17:59:49 10° SSE 18:05:16 73° ENE 18:10:46 10° NNW
Cosmos 1242 Rocket 4.1 18:04:25 10° NNW 18:07:54 40° W 18:11:21 10° SSW
Unknown 3.7 18:04:01 10° W 18:08:10 76° N 18:10:59 20° E
Cosmos 1153 Rocket 4.5 18:02:07 10° N 18:08:12 60° ENE 18:14:16 10° SSE
ASTEX 1 3.4 18:03:49 10° N 18:08:49 85° E 18:13:48 10° S
Unknown 3.7 18:05:05 10° W 18:09:13 75° N 18:11:59 20° E
USA 116 3.8 18:06:24 10° NNE 18:09:24 35° E 18:12:36 10° SSE
Unknown 3.7 18:05:48 10° W 18:09:58 75° N 18:12:41 21° E
Unknown 3.6 18:07:07 10° W 18:11:13 75° N 18:13:50 21° E
Unknown 3.7 18:07:31 10° W 18:11:40 75° N 18:14:20 21° E
Cosmos 1844 Rocket 3.8 18:09:21 10° WSW 18:14:46 45° NW 18:20:11 10° NNE
Unknown 3.6 18:10:40 10° W 18:14:49 75° N 18:17:21 23° E
Unknown 4.3 18:13:18 10° W 18:16:30 38° SSW 18:19:11 13° SE
Cosmos 1703 4.2 18:12:50 10° NNW 18:16:40 51° W 18:20:27 10° S
Unknown 3.6 18:13:59 10° W 18:18:08 75° N 18:20:32 24° E
Cosmos 1461 3.8 18:14:39 10° NW 18:18:35 47° SW 18:22:38 10° SSE
Unknown 3.6 18:15:39 10° W 18:19:48 75° N 18:22:08 25° E
Cosmos 2058 Rocket 3.6 18:16:34 10° SSW 18:20:51 60° WNW 18:25:12 10° N
Unknown 3.6 18:17:16 10° W 18:21:26 75° N 18:23:42 26° E
Lacrosse 5 2.4 18:17:45 10° WNW 18:22:44 57° SW 18:27:31 11° SE
Unknown 3.6 18:18:57 10° W 18:23:07 75° N 18:25:18 27° E
SL-27 R/B 4.1 18:21:52 10° N 18:23:39 17° NE 18:23:39 17° NE
SJ 16-02 2.2 18:20:33 10° N 18:24:29 30° NE 18:25:45 26° E
FALCON 9 DEB 4.3 18:22:26 10° W 18:25:43 39° SSW 18:28:00 17° SSE
CZ-4 R/B 2.0 18:22:26 10° S 18:26:36 61° WSW 18:30:49 10° NNW
In-Cosmos 22 Rocket 4.4 18:21:49 10° N 18:27:02 47° ENE 18:32:21 10° SE
SPOT 3 Rocket 4.5 18:26:37 23° E 18:28:22 29° ENE 18:32:47 10° N
ATLAS CENTAUR R/B 3.2 18:24:58 10° NNW 18:28:32 21° NNE 18:30:12 17° NE
Unknown 3.6 18:25:38 10° W 18:29:47 75° N 18:31:42 31° E
COSMO-SKYMED 1 2.7 18:27:01 10° NNE 18:31:23 80° WNW 18:35:44 10° SSW
Unknown 3.6 18:27:19 10° W 18:31:29 75° N 18:33:20 32° E
Cosmos 2084 Rocket 3.7 18:28:20 10° NW 18:32:46 72° SW 18:36:06 17° SE
Unknown 3.6 18:28:57 10° W 18:33:06 75° N 18:34:53 33° E
ATLAS 3B R/B 3.5 18:28:50 10° SSE 18:34:05 25° ESE 18:35:04 24° E
ATLAS 5 CENTAUR R/B 3.3 18:30:32 10° W 18:34:40 31° NNW 18:39:03 11° NE
Unknown 3.6 18:30:37 10° W 18:34:46 75° N 18:36:29 34° E
Unknown 3.6 18:32:16 10° W 18:36:25 76° N 18:38:04 35° E
Cosmos 1726 3.7 18:33:59 10° SW 18:37:24 37° WNW 18:40:50 10° N
Unknown 3.4 18:34:35 10° WNW 18:38:19 70° SSW 18:39:39 37° SE
Cosmos 1908 3.9 18:34:40 10° SSW 18:38:30 56° WNW 18:42:21 10° N
Unknown 3.6 18:35:35 10° W 18:39:45 76° N 18:41:16 38° E
Envisat 4.5 18:36:01 10° SSW 18:40:46 39° W 18:45:33 10° NNW
Unknown 4.4 18:37:44 10° W 18:41:00 36° SSW 18:42:37 23° SSE
Starlink (trailer) 3.6 18:37:15 10° W 18:41:24 76° N 18:42:51 39° E
CENTAUR R/B 3.3 18:36:47 10° S 18:41:49 28° ESE 18:42:35 27° E
Cosmos 1459 Rocket 4.0 18:36:43 10° N 18:42:55 64° ENE 18:49:10 10° SSE
Unknown 3.6 18:38:57 10° W 18:43:07 76° N 18:44:29 41° E
H-2A R/B 2.8 18:42:58 30° E 18:44:11 33° ENE 18:49:01 10° N
Cosmos 2061 Rocket 4.1 18:38:24 10° N 18:44:30 51° ENE 18:49:20 16° SE
Unknown 3.6 18:40:37 10° W 18:44:46 77° N 18:46:04 42° E
SJ-6B 4.0 18:47:30 25° NE 18:47:30 25° NE 18:49:41 10° N
Cosmos 2278 Rocket 2.3 18:40:51 10° SSW 18:46:33 82° WNW 18:52:17 10° NNE
Cosmos 1898 Rocket 3.5 18:41:30 10° NNW 18:46:47 68° ENE 18:50:02 24° SE
SJ-11-01 4.5 18:46:46 33° ESE 18:48:27 48° ENE 18:52:57 10° N
Cosmos 1766 Rocket 3.9 18:44:22 10° N 18:48:28 40° ENE 18:48:34 40° ENE
Unknown 3.6 18:45:17 10° W 18:49:25 78° N 18:50:31 47° E
Cosmos 2297 4.0 18:45:12 10° S 18:50:31 42° ESE 18:53:21 25° NE
Unknown 3.6 18:47:15 10° W 18:51:25 78° N 18:52:27 49° E
Unknown 3.6 18:49:08 10° W 18:53:18 78° N 18:54:17 51° E
Unknown 3.6 18:50:34 10° W 18:54:45 79° N 18:55:40 53° E
Unknown 3.6 18:52:16 10° W 18:56:26 79° N 18:57:16 55° E
Unknown 3.5 18:54:02 10° W 18:58:12 80° N 18:58:57 58° E
Okean 3 Rocket 3.5 18:54:15 10° N 18:58:47 64° ENE 19:00:14 40° SE
Cosmos 1076 Rocket 3.9 18:54:45 10° NNW 18:59:06 65° W 19:03:23 10° S
Unknown 3.5 18:57:21 10° W 19:01:32 81° N 19:02:08 63° E
Unknown 3.5 18:57:26 10° W 19:01:36 80° N 19:02:12 63° E
Unknown 3.5 18:58:54 10° W 19:03:04 81° N 19:03:37 65° E
DMSP B5D1-3 4.4 18:59:12 10° NNE 19:04:23 88° ESE 19:09:32 10° SSW
Resurs 01 Rocket 3.4 19:06:08 18° NNE 19:06:08 18° NNE 19:07:55 10° N
ARGOS 3.5 19:05:12 42° E 19:05:51 44° ENE 19:10:59 10° N
Unknown 3.5 19:02:09 10° W 19:06:18 81° N 19:06:44 70° ENE
USA 238 DEB 3.6 19:00:55 10° SW 19:07:39 79° SE 19:12:35 21° NE
USA 238 3.6 19:01:02 10° SW 19:07:45 79° SE 19:12:38 21° NE
Cosmos 1892 3.2 19:04:03 10° N 19:06:54 44° NNE 19:06:54 44° NNE
Cosmos 1727 Rocket 4.2 19:03:20 10° SSW 19:09:30 73° WNW 19:15:42 10° N
Cosmos 2058 3.2 19:05:27 10° NNW 19:09:40 67° W 19:12:59 16° S
Unknown 3.4 19:05:34 10° WNW 19:09:43 83° N 19:10:01 76° ENE
Cosmos 44 3.6 19:05:46 10° SSW 19:09:47 44° SSE 19:09:47 44° SSE
Cosmos 2173 Rocket 4.0 19:05:00 10° N 19:11:18 85° W 19:17:28 10° S
Unknown 3.4 19:07:14 10° WNW 19:11:24 83° N 19:11:37 79° ENE
Unknown 3.5 19:07:56 10° WNW 19:11:45 63° SSW 19:11:46 63° SSW
Unknown 3.4 19:08:54 10° WNW 19:13:05 84° NNE 19:13:13 81° ENE
Cosmos 1812 Rocket 4.2 19:08:59 10° SSW 19:13:21 58° WNW 19:17:48 10° N
Unknown 3.5 19:10:35 10° WNW 19:14:45 85° NNE 19:14:50 84° NE
Cosmos 1864 Rocket 4.4 19:10:35 10° N 19:16:42 64° ENE 19:18:58 39° SE
Unknown 3.5 19:13:56 10° WNW 19:18:02 86° NNW 19:18:02 86° NNW
Unknown 3.5 19:15:38 10° WNW 19:19:41 84° NW 19:19:41 84° NW
Cosmos 1802 Rocket 4.0 19:13:28 10° N 19:19:58 88° WSW 19:26:22 10° S
Cosmos 2151 2.9 19:16:29 10° N 19:20:43 82° NE 19:20:43 82° NE
Unknown 3.6 19:17:13 10° WNW 19:21:12 81° WNW 19:21:12 81° WNW
Unknown 3.6 19:18:50 10° WNW 19:22:45 78° WNW 19:22:45 78° WNW
Ariane Rocket 3.7 19:18:16 10° S 19:23:15 53° W 19:28:17 10° NNW
Meteor 2-3 Rocket 4.4 19:18:55 10° N 19:23:33 38° NE 19:23:33 38° NE
Unknown 3.7 19:20:38 10° WNW 19:24:29 76° WNW 19:24:29 76° WNW
MOS 1 4.3 19:20:54 19° S 19:25:06 77° WSW 19:30:47 10° NNW
Unknown 3.7 19:22:02 10° WNW 19:25:49 73° WNW 19:25:49 73° WNW
Cosmos 2123 Rocket 4.0 19:24:51 40° SSE 19:26:51 58° E 19:32:58 10° NNE
Cosmos 468 Rocket 4.1 19:23:56 10° SSW 19:28:19 57° SSE 19:28:19 57° SSE
Unknown 3.8 19:25:22 10° WNW 19:29:01 68° WNW 19:29:01 68° WNW
Cosmos 1300 3.8 19:26:08 10° SSW 19:29:48 44° WNW 19:33:29 10° N
NOSS 3-2 (A) 3.4 19:24:46 10° SW 19:30:41 89° SE 19:33:48 34° NE
Cosmos 2150 Rocket 4.3 19:25:45 10° NNW 19:30:47 54° NE 19:30:47 54° NE
Unknown 3.9 19:27:02 10° WNW 19:30:37 65° WNW 19:30:37 65° WNW
Cosmos 2233 Rocket 4.0 19:26:32 10° N 19:32:45 56° ENE 19:32:56 56° E
Unknown 4.0 19:28:54 10° WNW 19:32:25 62° W 19:32:25 62° W
Unknown 4.3 19:29:40 10° WNW 19:32:44 46° WSW 19:32:44 46° WSW
Cosmos 1725 Rocket 3.9 19:27:32 10° N 19:33:52 82° E 19:36:08 43° SSE
Unknown 4.1 19:30:22 10° WNW 19:33:49 60° WNW 19:33:49 60° WNW
Cosmos 1000 Rocket 4.5 19:28:35 10° SSW 19:34:48 83° W 19:41:08 10° N
Unknown 4.1 19:31:58 10° WNW 19:35:22 58° W 19:35:22 58° W
CZ-2C R/B 3.5 19:38:10 55° NE 19:38:10 55° NE 19:43:22 10° N
Cosmos 1937 Rocket 3.6 19:33:17 10° NNW 19:38:25 68° WSW 19:39:25 54° SSW
Unknown 4.3 19:35:22 10° WNW 19:38:37 54° W 19:38:37 54° W
Unknown 4.3 19:36:59 10° WNW 19:40:11 52° W 19:40:11 52° W
Unknown 4.4 19:38:40 10° WNW 19:41:48 50° W 19:41:48 50° W
Cosmos 2227 Rocket 4.2 19:40:08 10° NNW 19:43:12 15° NNE 19:43:33 14° NNE
Cosmos 2082 Rocket 4.3 19:42:11 10° NW 19:46:40 24° WSW 19:51:06 10° SSW
Cosmos 2297 Rocket 4.2 19:44:54 10° NNW 19:48:10 15° NNE 19:48:12 15° NNE
ADEOS Rocket 3.3 19:42:14 10° NNE 19:49:58 69° ESE 19:54:17 27° S
Cosmos 2016 Rocket 4.4 19:49:51 10° NNW 19:56:02 61° W 20:00:06 22° SSW
NOSS 3-2 (C) 3.3 19:50:33 10° SW 19:56:29 89° SE 19:57:05 75° NE
Cosmos 2298 Rocket 4.3 19:55:25 10° NNW 19:59:54 64° NNW 19:59:54 64° NNW
SJ 16-02 2.6 19:59:04 10° NW 20:02:46 38° W 20:02:46 38° W
Lacrosse 5 4.3 20:02:11 10° W 20:04:48 14° WSW 20:06:45 12° SSW
SPOT 3 Rocket 4.1 20:07:18 55° WSW 20:07:29 55° W 20:12:38 10° NNW
ATLAS CENTAUR R/B 3.2 20:03:57 10° NW 20:06:23 29° NNW 20:06:23 29° NNW
Cosmos 1238 Rocket 4.0 20:02:48 10° N 20:08:47 71° NNE 20:08:47 71° NNE
ATLAS 5 CENTAUR R/B 3.8 20:16:45 10° NW 20:20:34 24° N 20:20:34 24° N
H-2A R/B 2.9 20:23:36 48° W 20:23:36 48° W 20:28:44 10° NNW
ATLAS 3B R/B 3.0 20:17:19 10° SW 20:22:24 55° SW 20:22:24 55° SW
Cosmos 2278 Rocket 4.3 20:27:01 10° W 20:31:31 23° NW 20:36:02 10° NNE
CENTAUR R/B 3.1 20:25:29 10° SW 20:29:52 51° WSW 20:29:52 51° WSW
Resurs 01 Rocket 4.1 20:43:42 18° NNW 20:43:42 18° NNW 20:44:59 10° NNW
Cosmos 2227 Rocket 4.5 21:23:41 10° NNW 21:25:22 19° NNW 21:25:22 19° NNW
Cosmos 2297 Rocket 4.5 21:28:26 10° NNW 21:30:00 18° NNW 21:30:00 18° NNW
